| time (UTC) | temp F | wind direction | speed MPH | gust MPH | rain 1hr in | rain 24hr in | rain mn in | humidity % | barometer mb |
| 20260506233038 | 45 | 14 | 6.0 | 9.0 | 0.00 | 0.00 | 0.00 | 91 | 1004.4 |
| 20260506232055 | 45 | 31 | 4.0 | 7.0 | 0.00 | 0.00 | 0.00 | 91 | 1004.2 |
| 20260506231031 | 45 | 23 | 4.0 | 7.0 | 0.00 | 0.00 | 0.00 | 91 | 1004.1 |
| 20260506230029 | 45 | 33 | 8.0 | 11.0 | 0.00 | 0.00 | 0.00 | 91 | 1003.7 |
| 20260506225044 | 45 | 4 | 8.0 | 13.0 | 0.00 | 0.00 | 0.00 | 91 | 1003.6 |
| 20260506224121 | 45 | 59 | 5.0 | 10.0 | 0.00 | 0.00 | 0.00 | 90 | 1003.6 |
| 20260506223117 | 45 | 17 | 6.0 | 11.0 | 0.00 | 0.00 | 0.00 | 90 | 1003.6 |
| 20260506222133 | 45 | 4 | 7.0 | 11.0 | 0.00 | 0.00 | 0.00 | 90 | 1003.5 |
| 20260506221111 | 45 | 1 | 5.0 | 8.0 | 0.00 | 0.00 | 0.00 | 90 | 1003.6 |
| 20260506220106 | 45 | 8 | 7.0 | 11.0 | 0.00 | 0.00 | 0.00 | 90 | 1003.5 |
| 20260506215102 | 46 | 25 | 4.0 | 8.0 | 0.00 | 0.00 | 0.00 | 91 | 1003.6 |
| 20260506214059 | 46 | 14 | 5.0 | 8.0 | 0.00 | 0.00 | 0.00 | 91 | 1003.6 |
| 20260506213056 | 46 | 23 | 4.0 | 6.0 | 0.00 | 0.00 | 0.00 | 91 | 1003.7 |
| 20260506212051 | 46 | 48 | 4.0 | 7.0 | 0.00 | 0.00 | 0.00 | 91 | 1003.7 |
| 20260506211048 | 45 | 20 | 6.0 | 11.0 | 0.00 | 0.00 | 0.00 | 91 | 1003.4 |
| 20260506210049 | 45 | 16 | 6.0 | 11.0 | 0.00 | 0.00 | 0.00 | 91 | 1003.5 |
| 20260506205041 | 45 | 3 | 5.0 | 9.0 | 0.00 | 0.00 | 0.00 | 91 | 1003.4 |
| 20260506204037 | 45 | 28 | 5.0 | 9.0 | 0.00 | 0.00 | 0.00 | 91 | 1003.1 |
| 20260506203034 | 45 | 42 | 5.0 | 9.0 | 0.00 | 0.00 | 0.00 | 91 | 1003.1 |
| 20260506202030 | 46 | 57 | 4.0 | 6.0 | 0.00 | 0.00 | 0.00 | 91 | 1003.0 |
| 20260506201027 | 46 | 104 | 5.0 | 8.0 | 0.00 | 0.00 | 0.00 | 91 | 1003.0 |
| 20260506200023 | 46 | 53 | 5.0 | 8.0 | 0.00 | 0.00 | 0.00 | 90 | 1002.9 |
| 20260506195140 | 46 | 33 | 4.0 | 8.0 | 0.00 | 0.00 | 0.00 | 90 | 1002.9 |
| 20260506194116 | 46 | 22 | 4.0 | 6.0 | 0.00 | 0.00 | 0.00 | 89 | 1003.0 |
| 20260506193112 | 46 | 11 | 4.0 | 7.0 | 0.00 | 0.00 | 0.00 | 88 | 1002.7 |
| 20260506192108 | 47 | 4 | 5.0 | 8.0 | 0.00 | 0.00 | 0.00 | 87 | 1002.6 |
| 20260506191131 | 47 | 18 | 6.0 | 8.0 | 0.00 | 0.00 | 0.00 | 86 | 1002.6 |
| 20260506190101 | 48 | 7 | 6.0 | 9.0 | 0.00 | 0.00 | 0.00 | 86 | 1002.4 |
| 20260506185057 | 48 | 0 | 7.0 | 10.0 | 0.00 | 0.00 | 0.00 | 84 | 1002.4 |
| 20260506184058 | 49 | 14 | 6.0 | 9.0 | 0.00 | 0.00 | 0.00 | 84 | 1002.2 |
| 20260506183052 | 49 | 0 | 6.0 | 8.0 | 0.00 | 0.00 | 0.00 | 83 | 1001.9 |
| 20260506182047 | 50 | 0 | 6.0 | 10.0 | 0.00 | 0.00 | 0.00 | 81 | 1001.9 |
| 20260506181043 | 51 | 23 | 4.0 | 6.0 | 0.00 | 0.00 | 0.00 | 81 | 1001.7 |
| 20260506180039 | 51 | 21 | 4.0 | 8.0 | 0.00 | 0.00 | 0.00 | 81 | 1001.7 |
| 20260506175036 | 51 | 3 | 6.0 | 9.0 | 0.00 | 0.00 | 0.00 | 81 | 1001.7 |
| 20260506174032 | 52 | 19 | 5.0 | 9.0 | 0.00 | 0.00 | 0.00 | 80 | 1001.7 |
| 20260506173049 | 52 | 4 | 6.0 | 9.0 | 0.00 | 0.00 | 0.00 | 79 | 1001.7 |
| 20260506172044 | 53 | 56 | 5.0 | 8.0 | 0.00 | 0.00 | 0.00 | 77 | 1001.4 |
| 20260506171121 | 55 | 0 | 5.0 | 8.0 | 0.00 | 0.00 | 0.00 | 72 | 1001.4 |
| 20260506170118 | 55 | 23 | 5.0 | 8.0 | 0.00 | 0.00 | 0.00 | 76 | 1001.3 |
| 20260506165115 | 53 | 11 | 5.0 | 9.0 | 0.00 | 0.00 | 0.00 | 80 | 1001.1 |
| 20260506164110 | 53 | 69 | 5.0 | 8.0 | 0.00 | 0.00 | 0.00 | 79 | 1001.1 |
| 20260506163106 | 53 | 48 | 4.0 | 7.0 | 0.00 | 0.00 | 0.00 | 80 | 1001.0 |
| 20260506162104 | 53 | 39 | 7.0 | 11.0 | 0.00 | 0.00 | 0.00 | 79 | 1000.9 |
| 20260506161059 | 54 | 42 | 6.0 | 11.0 | 0.00 | 0.00 | 0.00 | 79 | 1001.0 |
| 20260506160056 | 54 | 45 | 7.0 | 12.0 | 0.00 | 0.00 | 0.00 | 78 | 1001.0 |
| 20260506155052 | 54 | 29 | 8.0 | 11.0 | 0.00 | 0.00 | 0.00 | 78 | 1001.0 |
| 20260506154049 | 54 | 59 | 8.0 | 11.0 | 0.00 | 0.00 | 0.00 | 78 | 1001.0 |
| 20260506153045 | 54 | 55 | 8.0 | 13.0 | 0.00 | 0.00 | 0.00 | 79 | 1001.1 |
| 20260506152102 | 54 | 34 | 7.0 | 12.0 | 0.00 | 0.00 | 0.00 | 79 | 1001.1 |
| 20260506151038 | 55 | 45 | 8.0 | 11.0 | 0.00 | 0.00 | 0.00 | 79 | 1001.2 |
| 20260506150035 | 55 | 68 | 8.0 | 11.0 | 0.00 | 0.00 | 0.00 | 80 | 1001.0 |
| 20260506145032 | 55 | 49 | 6.0 | 10.0 | 0.00 | 0.00 | 0.00 | 80 | 1001.1 |
| 20260506144027 | 55 | 32 | 6.0 | 10.0 | 0.00 | 0.00 | 0.00 | 81 | 1001.2 |
| 20260506143023 | 55 | 45 | 8.0 | 11.0 | 0.00 | 0.00 | 0.00 | 80 | 1001.2 |
| 20260506142140 | 55 | 22 | 6.0 | 11.0 | 0.00 | 0.00 | 0.00 | 80 | 1001.2 |
| 20260506141136 | 56 | 49 | 7.0 | 11.0 | 0.00 | 0.00 | 0.00 | 80 | 1001.3 |
| 20260506140114 | 57 | 19 | 6.0 | 11.0 | 0.00 | 0.00 | 0.00 | 80 | 1001.3 |
| 20260506135109 | 57 | 33 | 6.0 | 8.0 | 0.00 | 0.00 | 0.00 | 80 | 1001.3 |
| 20260506134107 | 57 | 16 | 7.0 | 11.0 | 0.00 | 0.00 | 0.00 | 77 | 1001.3 |
| 20260506133102 | 58 | 3 | 5.0 | 8.0 | 0.00 | 0.00 | 0.00 | 76 | 1001.1 |
| 20260506132058 | 59 | 45 | 6.0 | 9.0 | 0.00 | 0.00 | 0.00 | 75 | 1001.0 |
| 20260506131055 | 59 | 30 | 5.0 | 8.0 | 0.00 | 0.00 | 0.00 | 73 | 1001.0 |
| 20260506130052 | 59 | 37 | 5.0 | 8.0 | 0.00 | 0.00 | 0.00 | 76 | 1001.0 |
| 20260506125048 | 58 | 25 | 5.0 | 8.0 | 0.00 | 0.00 | 0.00 | 77 | 1001.1 |
| 20260506124045 | 58 | 7 | 4.0 | 6.0 | 0.00 | 0.00 | 0.00 | 77 | 1001.3 |
| 20260506123041 | 58 | 8 | 5.0 | 7.0 | 0.00 | 0.00 | 0.00 | 77 | 1001.1 |
| 20260506122037 | 58 | 348 | 7.0 | 9.0 | 0.00 | 0.00 | 0.00 | 77 | 1001.0 |
| 20260506121034 | 58 | 344 | 6.0 | 9.0 | 0.00 | 0.00 | 0.00 | 76 | 1001.0 |
| 20260506120035 | 59 | 1 | 6.0 | 8.0 | 0.00 | 0.00 | 0.00 | 75 | 1000.9 |
| 20260506115026 | 59 | 352 | 7.0 | 11.0 | 0.00 | 0.00 | 0.00 | 72 | 1000.8 |
| 20260506114023 | 60 | 356 | 6.0 | 9.0 | 0.00 | 0.00 | 0.00 | 72 | 1000.7 |
| 20260506113120 | 60 | 15 | 6.0 | 9.0 | 0.00 | 0.00 | 0.00 | 70 | 1000.5 |
| 20260506112116 | 61 | 16 | 6.0 | 11.0 | 0.00 | 0.00 | 0.00 | 69 | 1000.3 |
| 20260506111113 | 60 | 18 | 8.0 | 11.0 | 0.00 | 0.00 | 0.00 | 70 | 1000.4 |
| 20260506110108 | 60 | 37 | 7.0 | 13.0 | 0.00 | 0.00 | 0.00 | 70 | 1000.4 |
| 20260506105105 | 60 | 27 | 7.0 | 11.0 | 0.00 | 0.00 | 0.00 | 71 | 1000.4 |
| 20260506104101 | 59 | 28 | 9.0 | 14.0 | 0.00 | 0.00 | 0.00 | 72 | 1000.3 |
| 20260506103058 | 58 | 17 | 6.0 | 10.0 | 0.00 | 0.00 | 0.00 | 73 | 1000.5 |
| 20260506102055 | 58 | 85 | 4.0 | 9.0 | 0.00 | 0.00 | 0.00 | 73 | 1000.7 |
| 20260506101051 | 58 | 54 | 4.0 | 9.0 | 0.00 | 0.00 | 0.00 | 73 | 1000.6 |
| 20260506100047 | 58 | 45 | 6.0 | 12.0 | 0.00 | 0.00 | 0.00 | 74 | 1000.5 |
| 20260506095043 | 57 | 65 | 7.0 | 11.0 | 0.00 | 0.00 | 0.00 | 75 | 1000.3 |
| 20260506094045 | 57 | 63 | 7.0 | 11.0 | 0.00 | 0.00 | 0.00 | 75 | 1000.5 |
| 20260506093036 | 57 | 67 | 10.0 | 14.0 | 0.00 | 0.00 | 0.00 | 74 | 1000.4 |
| 20260506092053 | 57 | 45 | 7.0 | 11.0 | 0.00 | 0.00 | 0.00 | 72 | 1000.7 |
| 20260506091030 | 57 | 60 | 6.0 | 10.0 | 0.00 | 0.00 | 0.00 | 72 | 1000.6 |
| 20260506090026 | 57 | 52 | 8.0 | 12.0 | 0.00 | 0.00 | 0.00 | 71 | 1000.7 |
| 20260506085023 | 58 | 69 | 7.0 | 11.0 | 0.00 | 0.00 | 0.00 | 71 | 1000.7 |
| 20260506084119 | 58 | 45 | 7.0 | 12.0 | 0.00 | 0.00 | 0.00 | 71 | 1000.5 |
| 20260506083115 | 58 | 90 | 7.0 | 10.0 | 0.00 | 0.00 | 0.00 | 71 | 1000.6 |
| 20260506082112 | 57 | 45 | 8.0 | 13.0 | 0.00 | 0.00 | 0.00 | 73 | 1000.5 |
| 20260506081108 | 57 | 62 | 7.0 | 10.0 | 0.00 | 0.00 | 0.00 | 74 | 1000.5 |
| 20260506080104 | 56 | 92 | 7.0 | 11.0 | 0.00 | 0.00 | 0.00 | 74 | 1000.5 |
| 20260506073054 | 56 | 90 | 9.0 | 15.0 | 0.00 | 0.00 | 0.00 | 75 | 1000.1 |
| 20260506072049 | 55 | 54 | 9.0 | 16.0 | 0.00 | 0.00 | 0.00 | 79 | 1000.2 |
| 20260506071046 | 54 | 76 | 10.0 | 14.0 | 0.00 | 0.00 | 0.00 | 81 | 1000.5 |
| 20260506062028 | 50 | 52 | 11.0 | 17.0 | 0.00 | 0.00 | 0.00 | 90 | 1001.0 |
| 20260506061024 | 50 | 51 | 9.0 | 15.0 | 0.00 | 0.00 | 0.00 | 90 | 1001.2 |
| 20260506060121 | 49 | 53 | 11.0 | 16.0 | 0.00 | 0.00 | 0.00 | 91 | 1001.3 |
| 20260506051143 | 48 | 24 | 10.0 | 17.0 | 0.00 | 0.00 | 0.00 | 95 | 1001.6 |
| 20260506045100 | 47 | 45 | 6.0 | 12.0 | 0.00 | 0.00 | 0.00 | 97 | 1002.0 |
| 20260506044052 | 47 | 45 | 8.0 | 10.0 | 0.00 | 0.00 | 0.00 | 98 | 1002.2 |
| 20260506043048 | 47 | 42 | 7.0 | 12.0 | 0.00 | 0.00 | 0.00 | 98 | 1002.2 |
| 20260506042044 | 47 | 108 | 10.0 | 13.0 | 0.00 | 0.00 | 0.00 | 99 | 1002.3 |
| 20260506041041 | 47 | 45 | 8.0 | 11.0 | 0.00 | 0.00 | 0.00 | 99 | 1002.6 |
| 20260506040037 | 47 | 45 | 8.0 | 11.0 | 0.00 | 0.00 | 0.00 | 99 | 1002.4 |
| 20260506035034 | 47 | 34 | 8.0 | 11.0 | 0.00 | 0.00 | 0.00 | 99 | 1002.4 |
| 20260506034029 | 47 | 50 | 6.0 | 11.0 | 0.00 | 0.00 | 0.00 | 99 | 1002.4 |
| 20260506033031 | 47 | 60 | 8.0 | 15.0 | 0.00 | 0.00 | 0.00 | 99 | 1002.5 |
| 20260506032023 | 47 | 70 | 9.0 | 14.0 | 0.00 | 0.00 | 0.00 | 99 | 1002.5 |
| 20260506031119 | 47 | 38 | 8.0 | 13.0 | 0.00 | 0.00 | 0.00 | 99 | 1002.6 |
| 20260506030116 | 47 | 31 | 9.0 | 13.0 | 0.00 | 0.00 | 0.00 | 99 | 1002.7 |
| 20260506025152 | 47 | 37 | 7.0 | 13.0 | 0.00 | 0.00 | 0.00 | 99 | 1002.8 |
| 20260506024128 | 47 | 43 | 9.0 | 15.0 | 0.00 | 0.00 | 0.00 | 99 | 1002.8 |
| 20260506023126 | 47 | 50 | 9.0 | 13.0 | 0.00 | 0.00 | 0.00 | 99 | 1003.0 |
| 20260506022101 | 47 | 27 | 7.0 | 12.0 | 0.00 | 0.00 | 0.00 | 99 | 1003.1 |
| 20260506021057 | 47 | 56 | 10.0 | 15.0 | 0.00 | 0.00 | 0.00 | 99 | 1003.1 |
| 20260506020054 | 47 | 54 | 8.0 | 15.0 | 0.00 | 0.00 | 0.00 | 99 | 1003.2 |
| 20260506015051 | 47 | 207 | 7.0 | 11.0 | 0.00 | 0.00 | 0.00 | 99 | 1003.4 |
| 20260506014047 | 0 | 0.0 | 0.0 | 0.00 | 0.00 | 0.00 | 1003.4 | ||
| 20260506013103 | 0 | 0.0 | 0.0 | 0.00 | 0.00 | 0.00 | 1003.2 | ||
| 20260506012040 | 0 | 0.0 | 0.0 | 0.00 | 0.00 | 0.00 | 1003.2 | ||
| 20260506011036 | 0 | 0.0 | 0.0 | 0.00 | 0.00 | 0.00 | 1003.3 | ||
| 20260506010032 | 0 | 0.0 | 0.0 | 0.00 | 0.00 | 0.00 | 1003.4 | ||
| 20260506005049 | 0 | 0.0 | 0.0 | 0.00 | 0.00 | 0.00 | 1003.5 | ||
| 20260506004046 | 0 | 0.0 | 0.0 | 0.00 | 0.00 | 0.00 | 1003.5 | ||
| 20260506003021 | 0 | 0.0 | 0.0 | 0.00 | 0.00 | 0.00 | 1003.9 | ||
| 20260506002139 | 0 | 0.0 | 0.0 | 0.00 | 0.00 | 0.00 | 1003.9 | ||
| 20260506001114 | 49 | 68 | 5.0 | 7.0 | 0.00 | 0.00 | 0.00 | 99 | 1003.9 |
| 20260506000111 | 49 | 45 | 7.0 | 14.0 | 0.00 | 0.00 | 0.00 | 99 | 1004.2 |
| 20260505235107 | 49 | 39 | 7.0 | 13.0 | 0.00 | 0.00 | 0.00 | 99 | 1004.3 |
| 20260505234109 | 49 | 44 | 7.0 | 13.0 | 0.00 | 0.00 | 0.00 | 99 | 1004.3 |